DW7574 Weather Reports


time (UTC)temp
C
wind
direction
speed
KPH
gust
KPH
rain 1hr
cm
rain 24hr
cm
rain mn
cm
humidity
%
barometer
mb
20260508131520 9 301 0.0 3.2 0.00 0.00 0.00 100 1017.0
20260508130016 8 301 0.0 1.6 0.00 0.00 0.00 100 1017.2
20260508124511 7 301 0.0 3.2 0.00 0.00 0.00 100 1017.2
20260508123009 6 305 0.0 0.0 0.00 0.00 0.00 100 1017.0
20260508121503 5 305 0.0 0.0 0.00 0.00 0.00 100 1016.9
20260508120059 3 305 0.0 0.0 0.00 0.00 0.00 100 1016.9
20260508114555 -17 0.0 0.0 0.00 0.00 0.00 1016.8
20260508113105 -17 0.0 0.0 0.00 0.00 0.00 1016.7
20260508111547 -17 0.0 0.0 0.00 0.00 0.00 1016.5
20260508110051 -17 0.0 0.0 0.00 0.00 0.00 1016.4
20260508104539 -17 0.0 0.0 0.00 0.00 0.00 1016.3
20260508103033 -17 0.0 0.0 0.00 0.00 0.00 1016.3
20260508101528 -17 0.0 0.0 0.00 0.00 0.00 1016.1
20260508100024 -17 0.0 0.0 0.00 0.00 0.00 1016.0
20260508094519 -17 0.0 0.0 0.00 0.00 0.00 1015.9
20260508093015 -17 0.0 0.0 0.00 0.00 0.00 1015.8
20260508091513 -17 0.0 0.0 0.00 0.00 0.00 1015.8
20260508090009 -17 0.0 0.0 0.00 0.00 0.00 1015.6
20260508084502 -17 0.0 0.0 0.00 0.00 0.00 1015.7
20260508083057 -17 0.0 0.0 0.00 0.00 0.00 1015.6
20260508081601 -17 0.0 0.0 0.00 0.00 0.00 1015.6
20260508080049 -17 0.0 0.0 0.00 0.00 0.00 1015.6
20260508074545 -17 0.0 0.0 0.00 0.00 0.00 1015.5
20260508073040 -17 0.0 0.0 0.00 0.00 0.00 1015.5
20260508071546 -17 0.0 0.0 0.00 0.00 0.00 1015.5
20260508070031 -17 0.0 0.0 0.00 0.00 0.00 1015.4
20260508064529 -17 0.0 0.0 0.00 0.00 0.00 1015.5
20260508063023 -17 0.0 0.0 0.00 0.00 0.00 1015.5
20260508061519 -17 0.0 0.0 0.00 0.00 0.00 1015.7
20260508060013 -17 0.0 0.0 0.00 0.00 0.00 1015.7
20260508054510 -17 0.0 0.0 0.00 0.00 0.00 1015.6
20260508053004 -17 0.0 0.0 0.00 0.00 0.00 1015.5
20260508051600 -17 0.0 0.0 0.00 0.00 0.00 1015.5
20260508050055 -17 0.0 0.0 0.00 0.00 0.00 1015.5
20260508044556 -17 0.0 0.0 0.00 0.00 0.00 1015.6
20260508043047 -17 0.0 0.0 0.00 0.00 0.00 1015.5
20260508041608 -17 0.0 0.0 0.00 0.00 0.00 1015.5
20260508040046 -17 0.0 0.0 0.00 0.00 0.00 1015.6
20260508034536 7 305 0.0 0.0 0.00 0.00 0.00 8 1015.5
20260508033031 7 305 0.0 0.0 0.00 0.00 0.00 17 1015.5
20260508031527 7 305 0.0 0.0 0.00 0.00 0.00 32 1015.4
20260508030025 7 305 0.0 0.0 0.00 0.00 0.00 38 1015.3
20260508024519 8 305 0.0 0.0 0.00 0.00 0.00 48 1015.1
20260508023011 8 305 0.0 0.0 0.00 0.00 0.00 57 1014.8
20260508021512 9 305 0.0 0.0 0.00 0.00 0.00 60 1014.6
20260508020003 10 305 0.0 0.0 0.00 0.00 0.00 64 1014.4
20260508014600 10 305 0.0 0.0 0.00 0.00 0.00 63 1014.2
20260508013055 11 305 0.0 0.0 0.00 0.00 0.00 63 1014.0
20260508011556 12 305 0.0 0.0 0.00 0.00 0.00 59 1013.8
20260508010047 12 305 0.0 0.0 0.00 0.00 0.00 53 1013.6
20260508004544 13 305 0.0 0.0 0.00 0.00 0.00 51 1013.4
20260508003039 13 305 0.0 0.0 0.00 0.00 0.00 48 1013.3
20260508001537 14 305 0.0 0.0 0.00 0.00 0.00 48 1013.1
20260508000031 15 305 0.0 3.2 0.00 0.00 0.00 46 1012.8
20260507234525 15 305 0.0 1.6 0.00 0.00 0.00 46 1012.6
20260507233031 15 305 0.0 3.2 0.00 0.00 0.00 48 1012.4
20260507231517 16 305 0.0 1.6 0.00 0.00 0.00 48 1012.3
20260507230011 16 306 0.0 3.2 0.00 0.00 0.00 52 1012.3
20260507224507 16 355 0.0 3.2 0.00 0.00 0.00 53 1012.3
20260507223003 16 212 1.6 12.9 0.00 0.00 0.00 49 1012.1
20260507221558 17 316 0.0 11.3 0.00 0.00 0.00 48 1012.1
20260507220053 17 314 0.0 14.5 0.00 0.00 0.00 48 1012.0
20260507214558 17 319 0.0 4.8 0.00 0.00 0.00 51 1011.7
20260507213056 18 318 0.0 8.0 0.00 0.00 0.00 47 1011.7
20260507211540 18 324 0.0 11.3 0.00 0.00 0.00 48 1011.6
20260507210045 17 344 0.0 11.3 0.00 0.00 0.00 49 1011.4
20260507204532 18 340 0.0 9.7 0.00 0.00 0.00 44 1011.5
20260507203027 19 346 0.0 9.7 0.00 0.00 0.00 48 1011.4
20260507201523 19 319 0.0 9.7 0.00 0.00 0.00 44 1011.5
20260507200018 19 322 0.0 11.3 0.00 0.00 0.00 45 1011.6
20260507194516 19 286 0.0 20.9 0.00 0.00 0.00 48 1011.7
20260507193015 18 5 0.0 12.9 0.00 0.00 0.00 48 1011.7
20260507191509 18 321 0.0 9.7 0.00 0.00 0.00 47 1012.1
20260507190004 19 323 1.6 12.9 0.00 0.00 0.00 47 1012.2
20260507184558 20 355 1.6 12.9 0.00 0.00 0.00 46 1012.2
20260507183055 19 220 0.0 4.8 0.00 0.00 0.00 53 1012.4
20260507181555 18 324 0.0 12.9 0.00 0.00 0.00 50 1012.3
20260507180044 17 251 1.6 12.9 0.00 0.00 0.00 48 1012.5
20260507174552 17 34 1.6 14.5 0.00 0.00 0.00 54 1012.6
20260507173053 17 281 0.0 4.8 0.00 0.00 0.00 54 1012.8
20260507171541 17 307 0.0 9.7 0.00 0.00 0.00 54 1013.0
20260507170026 17 247 0.0 0.0 0.00 0.00 0.00 54 1013.1
20260507164529 16 309 1.6 12.9 0.00 0.00 0.00 53 1013.3
20260507163019 16 323 0.0 0.0 0.00 0.00 0.00 52 1013.3
20260507161515 16 323 0.0 9.7 0.00 0.00 0.00 54 1013.5
20260507160009 15 76 0.0 0.0 0.00 0.00 0.00 53 1013.7
20260507154605 16 76 0.0 1.6 0.00 0.00 0.00 53 1013.8
20260507153102 16 76 0.0 11.3 0.00 0.00 0.00 51 1013.7
20260507151601 15 75 0.0 1.6 0.00 0.00 0.00 52 1013.8
20260507150059 15 75 0.0 0.0 0.00 0.00 0.00 51 1013.9
20260507144551 15 76 0.0 12.9 0.00 0.00 0.00 50 1014.1
20260507143047 14 67 0.0 1.6 0.00 0.00 0.00 39 1014.0
20260507141550 13 67 0.0 3.2 0.00 0.00 0.00 31 1014.2
20260507140037 12 67 0.0 3.2 0.00 0.00 0.00 100 1014.3
20260507134530 12 67 0.0 0.0 0.00 0.00 0.00 100 1014.5
20260507133028 11 67 0.0 0.0 0.00 0.00 0.00 100 1014.5